TimeCST,TemperatureF,Dew PointF,Humidity,Sea Level PressureIn,VisibilityMPH,Wind Direction,Wind SpeedMPH,Gust SpeedMPH,PrecipitationIn,Events,Conditions,WindDirDegrees,DateUTC
12:00 AM,30.2,30.2,100,30.37,7.0,Calm,Calm,-,N/A,,Clear,0,2004-01-01 06:00:00
12:20 AM,30.2,30.2,100,30.36,7.0,Calm,Calm,-,N/A,,Clear,0,2004-01-01 06:20:00
12:40 AM,32.0,32.0,100,30.37,7.0,Calm,Calm,-,N/A,,Clear,0,2004-01-01 06:40:00
1:00 AM,30.2,30.2,100,30.37,7.0,Calm,Calm,-,N/A,,Clear,0,2004-01-01 07:00:00
1:20 AM,30.2,30.2,100,30.37,5.0,Calm,Calm,-,N/A,,Clear,0,2004-01-01 07:20:00
1:40 AM,32.0,32.0,100,30.37,10.0,Calm,Calm,-,N/A,,Clear,0,2004-01-01 07:40:00
2:00 AM,30.2,30.2,100,30.37,10.0,Calm,Calm,-,N/A,,Clear,0,2004-01-01 08:00:00
2:20 AM,32.0,32.0,100,30.37,10.0,Calm,Calm,-,N/A,,Clear,0,2004-01-01 08:20:00
2:40 AM,32.0,32.0,100,30.37,10.0,Calm,Calm,-,N/A,,Clear,0,2004-01-01 08:40:00
3:00 AM,30.2,30.2,100,30.38,10.0,Calm,Calm,-,N/A,,Clear,0,2004-01-01 09:00:00
3:20 AM,30.2,30.2,100,30.37,10.0,Calm,Calm,-,N/A,,Clear,0,2004-01-01 09:20:00
3:40 AM,30.2,30.2,100,30.37,10.0,Calm,Calm,-,N/A,,Clear,0,2004-01-01 09:40:00
4:00 AM,32.0,32.0,100,30.37,10.0,Calm,Calm,-,N/A,,Clear,0,2004-01-01 10:00:00
4:20 AM,32.0,32.0,100,30.37,10.0,Calm,Calm,-,N/A,,Clear,0,2004-01-01 10:20:00
4:40 AM,30.2,30.2,100,30.37,10.0,Calm,Calm,-,N/A,,Clear,0,2004-01-01 10:40:00
5:00 AM,30.2,30.2,100,30.37,10.0,Calm,Calm,-,N/A,,Clear,0,2004-01-01 11:00:00
5:20 AM,30.2,30.2,100,30.37,10.0,Calm,Calm,-,N/A,,Clear,0,2004-01-01 11:20:00
5:40 AM,32.0,32.0,100,30.37,10.0,Calm,Calm,-,N/A,,Clear,0,2004-01-01 11:40:00
6:00 AM,32.0,32.0,100,30.37,10.0,Calm,Calm,-,N/A,,Clear,0,2004-01-01 12:00:00
6:20 AM,32.0,32.0,100,30.37,10.0,Calm,Calm,-,N/A,,Clear,0,2004-01-01 12:20:00
6:40 AM,32.0,32.0,100,30.38,10.0,Calm,Calm,-,N/A,,Clear,0,2004-01-01 12:40:00
7:00 AM,32.0,32.0,100,30.39,10.0,Calm,Calm,-,N/A,,Clear,0,2004-01-01 13:00:00
7:20 AM,30.2,30.2,100,30.39,10.0,Calm,Calm,-,N/A,,Clear,0,2004-01-01 13:20:00
7:40 AM,32.0,32.0,100,30.41,10.0,Calm,Calm,-,N/A,,Clear,0,2004-01-01 13:40:00
8:00 AM,32.0,32.0,100,30.40,10.0,Calm,Calm,-,N/A,,Clear,0,2004-01-01 14:00:00
8:20 AM,35.6,33.8,93,30.41,10.0,Calm,Calm,-,N/A,,Clear,0,2004-01-01 14:20:00
8:40 AM,39.2,33.8,81,30.43,10.0,Calm,Calm,-,N/A,,Clear,0,2004-01-01 14:40:00
9:00 AM,41.0,33.8,76,30.44,10.0,Calm,Calm,-,N/A,,Clear,0,2004-01-01 15:00:00
9:20 AM,44.6,35.6,71,30.44,7.0,SE,3.5,-,N/A,,Clear,130,2004-01-01 15:20:00
9:40 AM,46.4,35.6,66,30.44,10.0,Calm,Calm,-,N/A,,Clear,0,2004-01-01 15:40:00
10:00 AM,50.0,35.6,58,30.44,10.0,SSE,5.8,-,N/A,,Scattered Clouds,160,2004-01-01 16:00:00
10:20 AM,51.8,33.8,50,30.43,10.0,SSE,5.8,-,N/A,,Mostly Cloudy,150,2004-01-01 16:20:00
10:40 AM,51.8,35.6,54,30.43,10.0,Calm,Calm,-,N/A,,Overcast,0,2004-01-01 16:40:00
11:00 AM,51.8,33.8,50,30.41,10.0,SE,3.5,-,N/A,,Overcast,130,2004-01-01 17:00:00
11:20 AM,51.8,35.6,54,30.39,10.0,ESE,4.6,-,N/A,,Overcast,110,2004-01-01 17:20:00
11:40 AM,51.8,35.6,54,30.37,10.0,SE,3.5,-,N/A,,Overcast,130,2004-01-01 17:40:00
12:00 PM,53.6,35.6,51,30.37,10.0,SE,3.5,-,N/A,Thunderstorm,Thunderstorm,130,2004-01-01 18:00:00
12:20 PM,53.6,35.6,51,30.36,10.0,SSE,4.6,-,N/A,,Scattered Clouds,160,2004-01-01 18:20:00
12:40 PM,55.4,35.6,47,30.34,10.0,SE,4.6,-,N/A,,Scattered Clouds,140,2004-01-01 18:40:00
1:00 PM,55.4,35.6,47,30.33,10.0,SE,4.6,-,N/A,,Mostly Cloudy,140,2004-01-01 19:00:00
1:20 PM,57.2,35.6,44,30.32,10.0,SSE,4.6,-,N/A,,Mostly Cloudy,150,2004-01-01 19:20:00
1:40 PM,55.4,35.6,47,30.32,10.0,SSE,5.8,-,N/A,,Overcast,150,2004-01-01 19:40:00
2:00 PM,57.2,35.6,44,30.32,10.0,SE,4.6,-,N/A,,Mostly Cloudy,140,2004-01-01 20:00:00
2:20 PM,57.2,35.6,44,30.30,10.0,SE,5.8,-,N/A,,Scattered Clouds,130,2004-01-01 20:20:00
2:40 PM,55.4,35.6,47,30.30,10.0,SE,6.9,-,N/A,,Mostly Cloudy,140,2004-01-01 20:40:00
3:00 PM,55.4,37.4,51,30.30,10.0,SE,3.5,-,N/A,,Overcast,130,2004-01-01 21:00:00
3:20 PM,55.4,37.4,51,30.31,10.0,Calm,Calm,-,N/A,,Overcast,0,2004-01-01 21:20:00
3:40 PM,57.2,37.4,48,30.31,10.0,SSE,4.6,-,N/A,,Overcast,160,2004-01-01 21:40:00
4:00 PM,55.4,39.2,54,30.32,10.0,South,4.6,-,N/A,,Overcast,190,2004-01-01 22:00:00
4:20 PM,55.4,41.0,58,30.30,10.0,SSE,4.6,-,N/A,,Overcast,150,2004-01-01 22:20:00
4:40 PM,55.4,39.2,54,30.30,10.0,SSE,4.6,-,N/A,,Scattered Clouds,160,2004-01-01 22:40:00
5:00 PM,55.4,39.2,54,30.29,10.0,SSE,4.6,-,N/A,,Clear,150,2004-01-01 23:00:00
5:20 PM,55.4,39.2,54,30.28,10.0,SSE,4.6,-,N/A,,Clear,150,2004-01-01 23:20:00
6:00 PM,55.4,37.4,51,30.29,10.0,SSE,4.6,-,N/A,,Clear,160,2004-01-02 00:00:00
6:03 PM,55.4,39.2,54,30.29,10.0,SSE,4.6,-,N/A,,Clear,160,2004-01-02 00:03:00
6:20 PM,51.8,41.0,67,30.29,10.0,South,3.5,-,N/A,,Clear,170,2004-01-02 00:20:00
6:40 PM,51.8,39.2,62,30.29,10.0,Calm,Calm,-,N/A,,Mostly Cloudy,0,2004-01-02 00:40:00
7:00 PM,50.0,41.0,71,30.28,10.0,SSE,3.5,-,N/A,,Mostly Cloudy,150,2004-01-02 01:00:00
7:20 PM,53.6,37.4,54,30.28,10.0,SSE,4.6,-,N/A,,Scattered Clouds,160,2004-01-02 01:20:00
7:40 PM,53.6,37.4,54,30.27,10.0,SSE,5.8,-,N/A,,Mostly Cloudy,150,2004-01-02 01:40:00
8:00 PM,55.4,37.4,51,30.29,10.0,Calm,Calm,-,N/A,,Overcast,0,2004-01-02 02:00:00
8:20 PM,50.0,41.0,71,30.29,10.0,Calm,Calm,-,N/A,,Overcast,0,2004-01-02 02:20:00
8:40 PM,48.2,42.8,82,30.29,10.0,Calm,Calm,-,N/A,,Overcast,0,2004-01-02 02:40:00
9:00 PM,50.0,42.8,76,30.30,10.0,Calm,Calm,-,N/A,,Overcast,0,2004-01-02 03:00:00
9:20 PM,50.0,42.8,76,30.29,10.0,SSE,4.6,-,N/A,,Overcast,150,2004-01-02 03:20:00
9:40 PM,51.8,41.0,67,30.29,10.0,South,4.6,-,N/A,,Overcast,170,2004-01-02 03:40:00
10:00 PM,53.6,41.0,62,30.29,10.0,South,3.5,-,N/A,,Overcast,170,2004-01-02 04:00:00
10:20 PM,51.8,42.8,71,30.29,10.0,Calm,Calm,-,N/A,,Overcast,0,2004-01-02 04:20:00
10:40 PM,53.6,39.2,58,30.28,10.0,SSE,5.8,-,N/A,,Mostly Cloudy,150,2004-01-02 04:40:00
11:00 PM,53.6,37.4,54,30.26,10.0,SSE,6.9,-,N/A,,Scattered Clouds,150,2004-01-02 05:00:00
11:20 PM,53.6,35.6,51,30.26,10.0,SSE,6.9,-,N/A,,Scattered Clouds,150,2004-01-02 05:20:00
11:40 PM,51.8,35.6,54,30.26,10.0,SSE,5.8,-,N/A,,Mostly Cloudy,150,2004-01-02 05:40:00